Tracking 27422 objects as of 30-May-2023
HD Live streaming from Space Station
objects crossing your sky now

DELTA 1 DEB

Track DELTA 1 DEB now!
10-day predictions


NORAD ID: 21497
Int'l Code: 1975-052FS
Perigee: 1,098.7 km
Apogee: 1,187.9 km
Inclination: 99.9 °
Period: 108.0 minutes
Semi major axis: 7514 km
RCS: 0.0605 m2 (small)
Launch date: June 12, 1975
Source: United States (US)
Launch site: AIR FORCE WESTERN TEST RANGE (AFWTR)

Note: This is SATELLITE DEBRIS
Your satellite tracking list
Your tracking list is empty




NASA's NSSDC Master Catalog

Two Line Element Set (TLE):
1 21497U 75052FS  23149.77261977  .00000013  00000-0  11374-3 0  9990
2 21497  99.9350  93.1756 0059359 143.1978 278.3315 13.32809840559539
Source of the keplerian elements: AFSPC